Tracking 29892 objects as of 21-Nov-2024
HD Live streaming from Space Station
objects crossing your sky now

COSMOS 952 DEB

Track COSMOS 952 DEB now!
10-day predictions


NORAD ID: 44567
Int'l Code: 1977-088D
Perigee: 910.6 km
Apogee: 993.9 km
Inclination: 64.9 °
Period: 103.9 minutes
Semi major axis: 7323 km
RCS: Unknown
Launch date: September 16, 1977
Source: Commonwealth of Independent States (former USSR) (CIS)
Launch site: TYURATAM MISSILE AND SPACE COMPLEX (TTMTR)

Note: This is SATELLITE DEBRIS
Your satellite tracking list
Your tracking list is empty




NASA's NSSDC Master Catalog

Two Line Element Set (TLE):
1 44567U 77088D   24314.41129150  .00000721  00000-0  70276-3 0  9998
2 44567  64.9351 195.7718 0056865 222.9743 310.2501 13.85298724554637
Source of the keplerian elements: AFSPC